N2MLB-WX Weather Reports


time (UTC)temp
C
wind
direction
speed
KPH
gust
KPH
rain 1hr
cm
rain 24hr
cm
rain mn
cm
humidity
%
barometer
mb
20260507160723 12 53 3.2 11.3 0.00 0.00 0.00 58 1008.0
20260507160220 14 314 0.0 1.6 0.00 0.00 0.00 57 1008.0
20260507155720 13 260 3.2 4.8 0.00 0.00 0.00 53 1008.0
20260507155219 12 138 3.2 4.8 0.00 0.00 0.00 60 1008.0
20260507154726 11 226 0.0 6.4 0.00 0.00 0.00 60 1008.0
20260507154219 12 44 3.2 6.4 0.00 0.00 0.00 54 1008.0
20260507153721 12 280 0.0 4.8 0.00 0.00 0.00 60 1008.0
20260507153220 13 234 1.6 3.2 0.00 0.00 0.00 58 1008.0
20260507152719 12 60 4.8 8.0 0.00 0.00 0.00 62 1008.0
20260507152220 14 261 0.0 1.6 0.00 0.00 0.00 58 1008.0
20260507151720 13 58 0.0 3.2 0.00 0.00 0.00 58 1008.0
20260507151219 12 56 1.6 3.2 0.00 0.00 0.00 57 1008.0
20260507150720 12 100 6.4 6.4 0.00 0.00 0.00 55 1008.0
20260507150219 12 192 4.8 4.8 0.00 0.00 0.00 56 1008.0
20260507145719 13 315 4.8 3.2 0.00 0.00 0.00 56 1008.0
20260507145220 12 61 0.0 9.7 0.00 0.00 0.00 56 1008.0
20260507144720 13 305 0.0 8.0 0.00 0.00 0.00 57 1008.0
20260507144220 13 58 1.6 8.0 0.00 0.00 0.00 55 1008.0
20260507143721 13 262 1.6 4.8 0.00 0.00 0.00 55 1008.0
20260507143219 13 89 0.0 4.8 0.00 0.00 0.00 61 1008.0
20260507142720 12 150 6.4 6.4 0.00 0.00 0.00 52 1008.0
20260507142221 12 49 0.0 3.2 0.00 0.00 0.00 56 1008.0
20260507141720 11 29 0.0 3.2 0.00 0.00 0.00 61 1008.0
20260507141220 12 160 0.0 8.0 0.00 0.00 0.00 58 1008.0
20260507140721 12 230 3.2 4.8 0.00 0.00 0.00 57 1008.0
20260507140221 12 76 3.2 3.2 0.00 0.00 0.00 56 1008.0
20260507135719 13 33 0.0 3.2 0.00 0.00 0.00 56 1008.0
20260507135222 12 74 0.0 0.0 0.00 0.00 0.00 59 1008.0
20260507134719 12 72 0.0 0.0 0.00 0.00 0.00 59 1008.0
20260507134219 13 63 0.0 0.0 0.00 0.00 0.00 54 1008.0
20260507133721 12 73 0.0 1.6 0.00 0.00 0.00 57 1008.0
20260507133219 11 242 4.8 3.2 0.00 0.00 0.00 61 1008.0
20260507132719 12 38 0.0 0.0 0.00 0.00 0.00 59 1008.0
20260507132219 11 44 0.0 0.0 0.00 0.00 0.00 67 1008.0
20260507131719 10 77 0.0 0.0 0.00 0.00 0.00 67 1008.0
20260507131220 10 66 0.0 4.8 0.00 0.00 0.00 67 1008.0
20260507130719 11 65 0.0 0.0 0.00 0.00 0.00 66 1008.0
20260507130221 10 53 0.0 0.0 0.00 0.00 0.00 70 1008.0
20260507125720 8 51 1.6 3.2 0.00 0.00 0.00 72 1008.0
20260507125220 10 55 0.0 0.0 0.00 0.00 0.00 66 1008.0
20260507124719 11 55 0.0 1.6 0.00 0.00 0.00 69 1008.0
20260507124220 11 45 0.0 0.0 0.00 0.00 0.00 69 1008.0
20260507123720 8 74 0.0 0.0 0.00 0.00 0.00 75 1008.0
20260507123220 8 49 0.0 0.0 0.00 0.00 0.00 74 1008.0
20260507122719 8 44 0.0 0.0 0.00 0.00 0.00 77 1008.0
20260507122219 8 44 0.0 0.0 0.00 0.00 0.00 72 1008.0
20260507121720 11 60 0.0 0.0 0.00 0.00 0.00 68 1008.0
20260507121219 8 59 0.0 0.0 0.00 0.00 0.00 74 1008.0
20260507120720 8 60 0.0 0.0 0.00 0.00 0.00 77 1008.0
20260507120219 7 27 0.0 0.0 0.00 0.00 0.00 82 1008.0
20260507115720 6 58 0.0 0.0 0.00 0.00 0.00 83 1008.0
20260507115220 6 58 0.0 0.0 0.00 0.00 0.00 84 1008.0
20260507114720 6 58 0.0 0.0 0.00 0.00 0.00 85 1008.0
20260507114220 5 58 0.0 0.0 0.00 0.00 0.00 86 1008.0
20260507113720 5 58 0.0 0.0 0.00 0.00 0.00 88 1008.0
20260507113220 5 50 0.0 0.0 0.00 0.00 0.00 89 1008.0
20260507112720 5 50 0.0 0.0 0.00 0.00 0.00 90 1008.0
20260507112220 5 271 1.6 1.6 0.00 0.00 0.00 88 1008.0
20260507111720 5 71 0.0 0.0 0.00 0.00 0.00 91 1008.0
20260507111219 5 74 0.0 0.0 0.00 0.00 0.00 90 1008.0
20260507110720 5 75 0.0 0.0 0.00 0.00 0.00 90 1008.0
20260507110219 5 73 0.0 0.0 0.00 0.00 0.00 90 1008.0
20260507105720 4 74 0.0 0.0 0.00 0.00 0.00 90 1008.0
20260507105220 4 70 0.0 0.0 0.00 0.00 0.00 91 1008.0
20260507104719 4 65 0.0 3.2 0.00 0.00 0.00 91 1008.0
20260507104220 4 72 0.0 3.2 0.00 0.00 0.00 92 1008.0
20260507103719 3 72 0.0 0.0 0.00 0.00 0.00 93 1008.0
20260507103220 3 47 0.0 0.0 0.00 0.00 0.00 94 1008.0
20260507102719 3 47 0.0 0.0 0.00 0.00 0.00 93 1008.0
20260507102219 3 74 0.0 0.0 0.00 0.00 0.00 93 1008.0
20260507101720 4 75 0.0 0.0 0.00 0.00 0.00 93 1008.0
20260507101219 3 72 0.0 0.0 0.00 0.00 0.00 94 1008.0
20260507100720 3 68 0.0 0.0 0.00 0.00 0.00 95 1008.0
20260507100220 3 72 0.0 0.0 0.00 0.00 0.00 95 1008.0
20260507095719 3 59 0.0 0.0 0.00 0.00 0.00 95 1008.0
20260507095220 3 63 0.0 0.0 0.00 0.00 0.00 95 1008.0
20260507094720 3 60 0.0 0.0 0.00 0.00 0.00 95 1008.0
20260507094219 3 81 0.0 0.0 0.00 0.00 0.00 96 1008.0
20260507093721 3 57 0.0 0.0 0.00 0.00 0.00 96 1008.0
20260507093220 3 68 0.0 0.0 0.00 0.00 0.00 96 1008.0
20260507092720 3 69 0.0 0.0 0.00 0.00 0.00 96 1008.0
20260507092219 3 69 0.0 0.0 0.00 0.00 0.00 96 1008.0
20260507091719 3 69 0.0 0.0 0.00 0.00 0.00 96 1008.0
20260507091219 3 69 0.0 0.0 0.00 0.00 0.00 96 1008.0
20260507090719 3 69 0.0 0.0 0.00 0.00 0.00 96 1008.0
20260507090219 3 70 0.0 0.0 0.00 0.00 0.00 96 1008.0
20260507085719 3 66 0.0 0.0 0.00 0.00 0.00 96 1008.0
20260507085220 3 66 0.0 0.0 0.00 0.00 0.00 96 1008.0
20260507084720 3 68 0.0 0.0 0.00 0.00 0.00 96 1008.0
20260507084222 3 69 0.0 0.0 0.00 0.00 0.00 96 1008.0
20260507083719 3 64 0.0 0.0 0.00 0.00 0.00 96 1008.0
20260507083220 3 59 0.0 0.0 0.00 0.00 0.00 96 1008.0
20260507082721 3 68 0.0 0.0 0.00 0.00 0.00 96 1008.0
20260507082220 3 64 0.0 0.0 0.00 0.00 0.00 96 1008.0
20260507081720 3 67 0.0 0.0 0.00 0.00 0.00 96 1008.0
20260507081220 3 68 0.0 0.0 0.00 0.00 0.00 96 1008.0
20260507080721 3 52 0.0 0.0 0.00 0.00 0.00 96 1008.0
20260507080220 3 52 0.0 0.0 0.00 0.00 0.00 96 1008.0
20260507075720 3 51 0.0 0.0 0.00 0.00 0.00 96 1008.0
20260507075219 3 61 0.0 0.0 0.00 0.00 0.00 95 1008.0
20260507074726 3 64 0.0 0.0 0.00 0.00 0.00 95 1008.0
20260507074219 3 63 0.0 0.0 0.00 0.00 0.00 95 1008.0
20260507073719 4 77 0.0 0.0 0.00 0.00 0.00 95 1008.0
20260507073220 4 65 0.0 0.0 0.00 0.00 0.00 95 1008.0
20260507072719 4 61 0.0 0.0 0.00 0.00 0.00 95 1008.0
20260507072220 4 61 0.0 0.0 0.00 0.00 0.00 95 1008.0
20260507071719 4 58 0.0 0.0 0.00 0.00 0.00 95 1008.0
20260507071220 4 64 0.0 0.0 0.00 0.00 0.00 94 1008.0
20260507070720 5 64 0.0 0.0 0.00 0.00 0.00 94 1008.0
20260507070220 5 65 0.0 0.0 0.00 0.00 0.00 94 1008.0
20260507065720 5 65 0.0 0.0 0.00 0.00 0.00 93 1008.0
20260507065219 5 73 0.0 0.0 0.00 0.00 0.00 94 1008.0
20260507064314 5 70 1.6 3.2 0.00 0.00 0.00 94 1008.0
20260507063719 5 65 0.0 1.6 0.00 0.00 0.00 95 1008.0
20260507063220 5 61 0.0 0.0 0.00 0.00 0.00 94 1008.0
20260507062720 5 61 0.0 0.0 0.00 0.00 0.00 94 1008.0
20260507062219 5 61 0.0 0.0 0.00 0.00 0.00 94 1008.0
20260507061719 5 64 0.0 0.0 0.00 0.00 0.00 93 1008.0
20260507061219 5 64 0.0 0.0 0.00 0.00 0.00 93 1008.0
20260507060719 5 60 0.0 0.0 0.00 0.00 0.00 93 1008.0
20260507060219 5 60 0.0 0.0 0.00 0.00 0.00 93 1008.0
20260507055721 5 60 0.0 0.0 0.00 0.00 0.00 93 1009.0
20260507055219 6 60 0.0 0.0 0.00 0.00 0.00 93 1009.0
20260507054720 6 60 0.0 0.0 0.00 0.00 0.00 93 1009.0
20260507054219 6 60 0.0 0.0 0.00 0.00 0.00 92 1009.0
20260507053719 6 59 0.0 0.0 0.00 0.00 0.00 93 1009.0
20260507053219 6 59 0.0 0.0 0.00 0.00 0.00 93 1009.0
20260507052719 6 59 0.0 0.0 0.00 0.00 0.00 93 1009.0
20260507052220 6 59 0.0 0.0 0.00 0.00 0.00 93 1009.0
20260507051720 6 58 0.0 0.0 0.00 0.00 0.00 94 1009.0
20260507051219 6 55 0.0 0.0 0.00 0.00 0.00 94 1009.0
20260507050719 6 60 0.0 0.0 0.00 0.00 0.00 94 1009.0
20260507050219 6 57 0.0 0.0 0.00 0.00 0.00 94 1009.0
20260507045719 6 57 0.0 0.0 0.00 0.00 0.00 94 1009.0
20260507045219 6 57 0.0 0.0 0.00 0.00 0.00 94 1009.0
20260507044720 6 60 0.0 0.0 0.00 0.00 0.00 94 1009.0
20260507044220 6 58 0.0 0.0 0.00 0.00 0.00 94 1009.0
20260507043720 6 58 0.0 0.0 0.00 0.00 0.00 94 1009.0
20260507043220 6 58 0.0 0.0 0.00 0.00 0.00 93 1009.0
20260507042719 6 58 0.0 0.0 0.00 0.00 0.00 93 1009.0
20260507042219 6 58 0.0 0.0 0.00 0.00 0.00 93 1009.0
20260507041719 6 58 0.0 0.0 0.00 0.00 0.00 92 1009.0
20260507041219 6 58 0.0 0.0 0.00 0.00 0.00 92 1009.0
20260507040720 6 58 0.0 0.0 0.00 0.00 0.00 92 1009.0
20260507040219 6 58 0.0 0.0 0.00 0.00 1.50 92 1009.0
20260507035721 6 57 0.0 0.0 0.00 0.00 1.50 92 1009.0
20260507035219 6 56 0.0 0.0 0.00 0.00 1.50 92 1009.0
20260507034719 6 56 0.0 0.0 0.00 0.00 1.50 92 1009.0
20260507034219 6 56 0.0 0.0 0.00 0.00 1.50 91 1009.0
20260507033719 6 58 0.0 0.0 0.00 0.00 1.50 91 1009.0
20260507033220 6 58 0.0 0.0 0.00 0.00 1.50 90 1009.0
20260507032719 6 58 0.0 0.0 0.00 0.00 1.50 90 1009.0
20260507032219 6 58 0.0 0.0 0.00 0.00 1.50 89 1009.0
20260507031720 6 58 0.0 0.0 0.00 0.00 1.50 89 1009.0
20260507031219 6 58 0.0 0.0 0.00 0.00 1.50 88 1009.0
20260507030719 6 56 0.0 0.0 0.00 0.00 1.50 89 1009.0
20260507030219 6 56 0.0 0.0 0.00 0.00 1.50 89 1009.0
20260507025720 6 56 0.0 0.0 0.00 0.00 1.50 89 1009.0
20260507025220 6 56 0.0 0.0 0.00 0.00 1.50 89 1009.0
20260507024719 6 57 0.0 0.0 0.00 0.00 1.50 89 1009.0
20260507024220 6 57 0.0 0.0 0.00 0.00 1.50 89 1009.0
20260507023720 6 57 0.0 0.0 0.00 0.00 1.50 89 1009.0
20260507023219 6 57 0.0 0.0 0.00 0.00 1.50 89 1009.0
20260507022720 6 57 0.0 0.0 0.00 0.00 1.50 89 1009.0
20260507022219 6 57 0.0 0.0 0.00 0.00 1.50 89 1009.0
20260507021720 6 57 0.0 0.0 0.00 0.00 1.50 88 1009.0
20260507021220 6 57 0.0 0.0 0.00 0.00 1.50 88 1009.0
20260507020719 6 57 0.0 0.0 0.00 0.00 1.50 88 1009.0
20260507020220 6 57 0.0 0.0 0.00 0.00 1.50 88 1009.0
20260507015719 6 57 0.0 0.0 0.00 0.00 1.50 88 1009.0
20260507015219 6 57 0.0 0.0 0.00 0.00 1.50 89 1009.0
20260507014721 6 57 0.0 0.0 0.00 0.00 1.50 89 1009.0
20260507014219 6 57 0.0 0.0 0.00 0.00 1.50 90 1009.0
20260507013720 6 61 0.0 0.0 0.00 0.00 1.50 89 1009.0
20260507013222 6 61 0.0 0.0 0.00 0.00 1.50 89 1009.0
20260507012719 6 9 0.0 0.0 0.00 0.00 1.50 89 1009.0
20260507012219 6 46 0.0 0.0 0.00 0.00 1.50 89 1009.0
20260507011720 6 36 0.0 0.0 0.00 0.00 1.50 89 1009.0
20260507011220 6 48 0.0 0.0 0.00 0.00 1.50 89 1009.0
20260507010721 6 48 0.0 0.0 0.00 0.00 1.50 89 1009.0
20260507010219 6 48 0.0 0.0 0.00 0.00 1.50 89 1009.0
20260507005719 6 28 0.0 0.0 0.00 0.00 1.50 90 1008.0
20260507005220 6 28 0.0 0.0 0.00 0.00 1.50 89 1008.0
20260507004720 6 58 0.0 0.0 0.00 0.00 1.50 89 1008.0
20260507004220 6 12 0.0 0.0 0.00 0.00 1.50 88 1008.0
20260507003720 6 12 0.0 0.0 0.00 0.00 1.50 89 1008.0
20260507003220 6 12 0.0 0.0 0.00 0.00 1.50 89 1008.0
20260507002720 6 12 0.0 0.0 0.00 0.00 1.50 88 1008.0
20260507002220 6 12 0.0 0.0 0.00 0.00 1.50 88 1008.0
20260507001720 6 12 0.0 0.0 0.00 0.00 1.50 89 1008.0
20260507001219 6 12 0.0 0.0 0.00 0.00 1.50 88 1008.0
20260507000719 6 42 0.0 0.0 0.00 0.00 1.50 88 1008.0
20260507000220 7 10 0.0 0.0 0.00 0.00 1.50 87 1008.0
20260506235719 7 33 0.0 0.0 0.00 0.00 1.50 87 1008.0
20260506235219 6 32 0.0 0.0 0.00 0.00 1.50 88 1008.0
20260506234719 7 40 0.0 0.0 0.00 0.00 1.50 88 1008.0
20260506234219 7 40 0.0 0.0 0.00 0.00 1.50 88 1008.0
20260506233720 7 40 0.0 0.0 0.00 0.00 1.50 87 1008.0
20260506233221 7 40 0.0 0.0 0.00 0.00 1.50 86 1008.0
20260506232720 7 31 0.0 0.0 0.00 0.00 1.50 86 1008.0
20260506232219 7 52 0.0 0.0 0.00 0.00 1.50 86 1008.0
20260506231720 7 31 0.0 0.0 0.00 0.00 1.50 84 1008.0
20260506231220 7 33 0.0 0.0 0.00 0.00 1.50 85 1008.0
20260506230719 7 48 0.0 0.0 0.00 0.00 1.50 86 1008.0
20260506230219 7 32 0.0 0.0 0.00 0.00 1.50 86 1008.0
20260506225720 7 9 0.0 0.0 0.00 0.00 1.50 87 1007.0
20260506225219 7 7 0.0 1.6 0.00 0.00 1.50 87 1007.0
20260506224720 7 27 0.0 3.2 0.00 0.00 1.50 88 1007.0
20260506224220 7 28 0.0 4.8 0.00 0.00 1.50 87 1007.0
20260506223719 7 289 1.6 3.2 0.00 0.00 1.50 88 1007.0
20260506223219 7 3 1.6 1.6 0.00 0.00 1.50 89 1007.0
20260506222719 7 33 1.6 3.2 0.00 0.00 1.50 87 1007.0
20260506222219 7 35 0.0 0.0 0.00 0.00 1.50 88 1007.0
20260506221723 7 327 1.6 4.8 0.00 0.00 1.50 88 1007.0
20260506221219 7 344 1.6 3.2 0.00 0.00 1.50 88 1007.0
20260506220720 8 46 0.0 0.0 0.00 0.00 1.50 88 1007.0
20260506220219 7 8 0.0 3.2 0.00 0.00 1.50 88 1007.0
20260506215719 7 46 0.0 3.2 0.00 0.00 1.50 90 1006.0
20260506215220 7 11 0.0 3.2 0.00 0.00 1.50 90 1006.0
20260506214719 7 358 0.0 0.0 0.00 0.00 1.50 89 1006.0
20260506214220 8 19 0.0 0.0 0.00 0.00 1.50 88 1006.0
20260506213720 7 359 0.0 3.2 0.00 0.00 1.50 90 1006.0
20260506213220 7 40 0.0 3.2 0.00 0.00 1.50 91 1006.0
20260506212720 7 47 6.4 8.0 0.00 0.00 1.50 89 1006.0
20260506212219 7 40 3.2 8.0 0.00 0.00 1.50 91 1006.0
20260506211719 7 289 3.2 14.5 0.00 0.00 1.50 90 1006.0
20260506211220 8 355 3.2 3.2 0.00 0.00 1.50 90 1006.0
20260506210719 8 316 6.4 6.4 0.00 0.00 1.50 89 1006.0
20260506210220 9 55 0.0 1.6 0.00 0.00 1.50 88 1006.0
20260506205721 9 7 3.2 4.8 0.00 0.00 1.50 86 1006.0
20260506205219 10 323 6.4 8.0 0.00 0.00 1.50 84 1006.0
20260506204719 10 86 3.2 6.4 0.00 0.00 1.50 86 1006.0
20260506204220 9 270 6.4 16.1 0.00 0.00 1.50 87 1006.0
20260506203721 9 17 3.2 3.2 0.00 0.00 1.50 88 1006.0
20260506203221 10 63 4.8 11.3 0.00 0.00 1.50 87 1006.0
20260506202719 10 56 1.6 8.0 0.00 0.00 1.50 85 1006.0
20260506202219 11 69 3.2 8.0 0.00 0.00 1.50 81 1006.0
20260506201723 12 268 8.0 6.4 0.00 0.00 1.50 74 1006.0
20260506201219 13 170 8.0 3.2 0.00 0.00 1.50 74 1006.0
20260506200719 12 31 0.0 4.8 0.00 0.00 1.50 74 1006.0
20260506200219 12 52 6.4 8.0 0.00 0.00 1.50 79 1006.0
20260506195719 11 35 1.6 14.5 0.00 0.00 1.50 80 1006.0
20260506195220 13 151 3.2 3.2 0.00 0.00 1.50 73 1006.0
20260506194721 13 312 0.0 9.7 0.00 0.00 1.50 73 1006.0
20260506194220 15 271 4.8 3.2 0.00 0.00 1.50 64 1006.0
20260506193719 15 34 0.0 9.7 0.00 0.00 1.50 71 1006.0
20260506193224 14 44 3.2 4.8 0.00 0.00 1.50 66 1006.0
20260506192719 14 306 0.0 4.8 0.00 0.00 1.50 66 1006.0
20260506192219 13 317 1.6 4.8 0.00 0.00 1.50 69 1006.0
20260506191719 14 291 8.0 11.3 0.00 0.00 1.50 61 1006.0
20260506191219 16 287 9.7 4.8 0.00 0.00 1.50 57 1006.0
20260506190720 16 33 3.2 1.6 0.00 0.00 1.50 56 1006.0
20260506190219 15 82 0.0 1.6 0.00 0.00 1.50 60 1006.0
20260506185720 15 214 4.8 3.2 0.00 0.00 1.50 60 1005.0
20260506185219 15 341 6.4 8.0 0.00 0.00 1.50 65 1005.0
20260506184720 15 272 3.2 3.2 0.00 0.00 1.50 66 1005.0
20260506184222 14 85 3.2 9.7 0.00 0.00 1.50 64 1005.0
20260506183719 16 48 0.0 0.0 0.00 0.00 1.50 60 1005.0
20260506183219 15 105 0.0 0.0 0.00 0.00 1.50 63 1005.0
20260506182719 16 314 0.0 1.6 0.00 0.00 1.50 57 1005.0
20260506182220 13 38 0.0 0.0 0.00 0.00 1.50 68 1005.0
20260506181719 12 61 0.0 0.0 0.00 0.00 1.50 72 1005.0
20260506181222 13 58 0.0 0.0 0.00 0.00 1.50 66 1005.0
20260506180719 13 32 0.0 0.0 0.00 0.00 1.50 69 1005.0
20260506180220 13 309 0.0 0.0 0.00 0.00 1.50 71 1005.0
20260506175719 12 16 0.0 0.0 0.00 0.00 1.50 70 1005.0
20260506175219 13 65 0.0 0.0 0.00 0.00 1.50 65 1005.0
20260506174721 13 3 0.0 0.0 0.00 0.00 1.50 66 1005.0
20260506173733 12 59 0.0 0.0 0.00 0.00 1.50 70 1005.0
20260506173220 13 322 0.0 0.0 0.00 0.00 1.50 67 1005.0
20260506172719 13 55 0.0 0.0 0.00 0.00 1.50 68 1005.0
20260506172220 12 55 0.0 0.0 0.00 0.00 1.50 74 1005.0
20260506171720 12 41 0.0 0.0 0.00 0.00 1.50 80 1005.0
20260506171219 11 4 0.0 0.0 0.00 0.00 1.50 76 1005.0
20260506170719 11 42 0.0 0.0 0.00 0.00 1.50 75 1005.0
20260506170220 11 41 0.0 0.0 0.00 0.00 1.50 80 1005.0
20260506165720 10 22 0.0 0.0 0.00 0.00 1.50 85 1005.0
20260506165219 10 15 0.0 0.0 0.00 0.00 1.50 85 1005.0
20260506164722 11 32 0.0 0.0 0.00 0.00 1.50 87 1005.0
20260506164219 10 46 0.0 0.0 0.00 0.00 1.50 84 1005.0
20260506163721 10 44 0.0 0.0 0.00 0.00 1.50 85 1005.0
20260506163220 11 43 0.0 0.0 0.00 0.00 1.50 83 1005.0
20260506162719 11 71 3.2 3.2 0.00 0.00 1.50 80 1005.0
20260506162220 11 6 0.0 3.2 0.00 0.00 1.50 86 1005.0
20260506161719 11 33 1.6 1.6 0.00 0.00 1.50 79 1005.0
20260506161220 12 40 0.0 0.0 0.00 0.00 1.50 83 1005.0